Voltar ao catálogo

COSMOS 2251 DEB

AtivoLEO
NORAD 34007·DEBRIS·🇷🇺 Russia

Lançado Jun 16, 1993 de Plesetsk Cosmodrome

Loading…

Próximas Passagens (próximas 24 horas)

TLE

AtualizadoSource: Space-Track

Época: Sep 14, 2026, 05:33 UTC

1 34007U 93036GS  26257.23191615  .00001847  00000-0  33332-3 0  9992
2 34007  74.0179 175.6967 0047161 240.7675 118.8774 14.66556369931162

Acompanhe COSMOS 2251 DEB em tempo real com AllMySat

Download on the App Store